When you browse on this site, cookies collect data to enhance your experience and personalize the content and advertising you see.
Visit our Privacy Policy to learn more. By continuing to use the site, you agree to this use of cookies and data.
  • In Sweden
  • List of Countries
  • For 7 days
  • Water Temperature
  • Weather Map
  • Weather Widgets
  • user-avatar
    Login

    Hourly Weather Spring Valley

    Today, 6 December, Friday

    Time Temperature Precipitation Wind Pressure Humidity
    00:00 +16°C° 0 mm 1 mps 749 mmHg 69%
    01:00 +16°C° 0 mm 1 mps 749 mmHg 68%
    02:00 +14°C° 0 mm 0 mps 749 mmHg 67%
    03:00 +14°C° 0 mm 0 mps 749 mmHg 67%
    04:00 +14°C° 0 mm 0 mps 749 mmHg 66%
    05:00 +14°C° 0 mm 0 mps 749 mmHg 67%
    06:00 +14°C° 0 mm 0 mps 749 mmHg 67%
    07:00 +14°C° 0 mm 0 mps 750 mmHg 68%
    08:00 +16°C° 0 mm 0 mps 750 mmHg 61%
    09:00 +17°C° 0 mm 0 mps 750 mmHg 55%
    10:00 +18°C° 0 mm 0 mps 751 mmHg 49%
    11:00 +21°C° 0 mm 1 mps 750 mmHg 46%
    12:00 +22°C° 0 mm 1 mps 750 mmHg 43%
    13:00 +23°C° 0 mm 2 mps 749 mmHg 40%
    14:00 +22°C° 0 mm 1 mps 749 mmHg 45%
    15:00 +21°C° 0 mm 1 mps 749 mmHg 50%
    16:00 +21°C° 0 mm 1 mps 749 mmHg 55%
    17:00 +20°C° 0 mm 1 mps 750 mmHg 59%
    18:00 +20°C° 0 mm 1 mps 750 mmHg 62%
    19:00 +17°C° 0 mm 0 mps 750 mmHg 65%
    20:00 +17°C° 0 mm 0 mps 750 mmHg 65%
    21:00 +17°C° 0 mm 0 mps 750 mmHg 64%
    22:00 +17°C° 0 mm 0 mps 750 mmHg 64%
    23:00 +17°C° 0 mm 0 mps 750 mmHg 63%

    Tomorrow, 7 December, Saturday

    Time Temperature Precipitation Wind Pressure Humidity
    00:00 +17°C° 0 mm 0 mps 750 mmHg 62%
    01:00 +17°C° 0 mm 0 mps 750 mmHg 62%
    02:00 +17°C° 0 mm 0 mps 750 mmHg 61%
    03:00 +17°C° 0 mm 0 mps 750 mmHg 60%
    04:00 +19°C° 0 mm 1 mps 750 mmHg 59%
    05:00 +17°C° 0 mm 0 mps 750 mmHg 59%
    06:00 +17°C° 0 mm 0 mps 750 mmHg 59%
    07:00 +17°C° 0 mm 0 mps 750 mmHg 59%
    08:00 +18°C° 0 mm 0 mps 751 mmHg 56%
    09:00 +19°C° 0 mm 0 mps 751 mmHg 52%
    10:00 +20°C° 0 mm 0 mps 751 mmHg 49%
    11:00 +23°C° 0 mm 1 mps 750 mmHg 51%
    12:00 +23°C° 0 mm 1 mps 750 mmHg 53%
    13:00 +24°C° 0 mm 2 mps 749 mmHg 54%
    14:00 +23°C° 0.1 mm 2 mps 749 mmHg 60%
    15:00 +22°C° 0.1 mm 1 mps 749 mmHg 66%
    16:00 +21°C° 0.1 mm 1 mps 749 mmHg 72%
    17:00 +20°C° 0.9 mm 1 mps 749 mmHg 77%
    18:00 +19°C° 0.9 mm 1 mps 749 mmHg 81%
    19:00 +19°C° 0.9 mm 1 mps 749 mmHg 86%
    20:00 +19°C° 0.1 mm 1 mps 749 mmHg 86%
    21:00 +18°C° 0.1 mm 2 mps 749 mmHg 86%
    22:00 +17°C° 0.1 mm 2 mps 749 mmHg 86%
    23:00 +17°C° 0 mm 2 mps 749 mmHg 87%

    Day after tomorrow, 8 December, Sunday

    Time Temperature Precipitation Wind Pressure Humidity
    00:00 +17°C° 0 mm 2 mps 749 mmHg 88%
    01:00 +17°C° 0 mm 2 mps 748 mmHg 89%
    02:00 +17°C° 0.2 mm 2 mps 748 mmHg 90%
    03:00 +17°C° 0.2 mm 2 mps 748 mmHg 91%
    04:00 +17°C° 0.2 mm 2 mps 747 mmHg 92%
    05:00 +17°C° 0.3 mm 2 mps 747 mmHg 92%
    06:00 +16°C° 0.3 mm 3 mps 748 mmHg 92%
    07:00 +16°C° 0.3 mm 3 mps 748 mmHg 92%
    08:00 +17°C° 0.4 mm 3 mps 748 mmHg 88%
    09:00 +17°C° 0.4 mm 3 mps 748 mmHg 83%
    10:00 +18°C° 0.4 mm 3 mps 748 mmHg 79%
    11:00 +18°C° 0.1 mm 4 mps 748 mmHg 72%
    12:00 +19°C° 0.1 mm 4 mps 747 mmHg 66%
    13:00 +19°C° 0.1 mm 5 mps 747 mmHg 60%
    14:00 +18°C° 0 mm 4 mps 746 mmHg 63%
    15:00 +18°C° 0 mm 4 mps 746 mmHg 67%
    16:00 +17°C° 0 mm 4 mps 746 mmHg 70%
    17:00 +17°C° 0.2 mm 3 mps 746 mmHg 75%
    18:00 +16°C° 0.2 mm 3 mps 746 mmHg 81%
    19:00 +14°C° 0.2 mm 3 mps 747 mmHg 86%
    20:00 +14°C° 0.1 mm 3 mps 747 mmHg 84%
    21:00 +14°C° 0.1 mm 3 mps 747 mmHg 83%
    22:00 +14°C° 0.1 mm 3 mps 748 mmHg 81%
    23:00 +15°C° 0 mm 2 mps 748 mmHg 82%

    9 December, Monday

    Time Temperature Precipitation Wind Pressure Humidity
    00:00 +14°C° 0 mm 2 mps 747 mmHg 82%
    01:00 +14°C° 0 mm 2 mps 747 mmHg 83%
    02:00 +14°C° 0 mm 1 mps 747 mmHg 84%
    03:00 +13°C° 0 mm 1 mps 747 mmHg 84%
    04:00 +12°C° 0 mm 0 mps 747 mmHg 85%
    05:00 +13°C° 0 mm 1 mps 748 mmHg 84%
    06:00 +13°C° 0 mm 1 mps 748 mmHg 83%
    07:00 +13°C° 0 mm 1 mps 748 mmHg 82%
    08:00 +14°C° 0 mm 1 mps 749 mmHg 76%
    09:00 +15°C° 0 mm 1 mps 749 mmHg 70%
    10:00 +15°C° 0 mm 0 mps 749 mmHg 64%
    11:00 +18°C° 0 mm 1 mps 749 mmHg 60%
    12:00 +19°C° 0 mm 1 mps 748 mmHg 56%
    13:00 +19°C° 0 mm 2 mps 748 mmHg 52%
    14:00 +19°C° 0 mm 2 mps 748 mmHg 53%
    15:00 +19°C° 0 mm 2 mps 748 mmHg 53%
    16:00 +19°C° 0 mm 2 mps 748 mmHg 54%
    17:00 +18°C° 0 mm 2 mps 748 mmHg 59%
    18:00 +16°C° 0 mm 1 mps 749 mmHg 65%
    19:00 +15°C° 0 mm 1 mps 749 mmHg 70%
    20:00 +15°C° 0 mm 1 mps 749 mmHg 71%
    21:00 +15°C° 0 mm 1 mps 750 mmHg 72%
    22:00 +15°C° 0 mm 1 mps 750 mmHg 73%
    23:00 +14°C° 0 mm 1 mps 750 mmHg 74%

    10 December, Tuesday

    Time Temperature Precipitation Wind Pressure Humidity
    00:00 +14°C° 0 mm 1 mps 750 mmHg 74%
    01:00 +14°C° 0 mm 1 mps 750 mmHg 75%
    02:00 +14°C° 0 mm 1 mps 750 mmHg 73%
    03:00 +13°C° 0 mm 1 mps 750 mmHg 72%
    04:00 +13°C° 0 mm 1 mps 750 mmHg 70%
    05:00 +13°C° 0 mm 1 mps 750 mmHg 67%
    06:00 +13°C° 0 mm 1 mps 750 mmHg 64%
    07:00 +13°C° 0 mm 1 mps 750 mmHg 61%
    08:00 +15°C° 0 mm 1 mps 751 mmHg 53%
    09:00 +18°C° 0 mm 1 mps 751 mmHg 45%
    10:00 +20°C° 0 mm 1 mps 751 mmHg 38%
    11:00 +21°C° 0 mm 1 mps 751 mmHg 35%
    12:00 +21°C° 0 mm 2 mps 750 mmHg 33%
    13:00 +21°C° 0 mm 2 mps 750 mmHg 31%
    14:00 +20°C° 0 mm 2 mps 749 mmHg 38%
    15:00 +19°C° 0 mm 2 mps 749 mmHg 45%
    16:00 +18°C° 0 mm 2 mps 749 mmHg 52%
    17:00 +18°C° 0 mm 2 mps 749 mmHg 55%
    18:00 +18°C° 0 mm 1 mps 749 mmHg 59%
    19:00 +16°C° 0 mm 1 mps 749 mmHg 62%
    20:00 +16°C° 0 mm 1 mps 749 mmHg 62%
    21:00 +15°C° 0 mm 1 mps 749 mmHg 62%
    22:00 +15°C° 0 mm 1 mps 749 mmHg 62%
    23:00 +15°C° 0 mm 1 mps 749 mmHg 64%

    11 December, Wednesday

    Time Temperature Precipitation Wind Pressure Humidity
    00:00 +14°C° 0 mm 1 mps 748 mmHg 66%
    01:00 +14°C° 0 mm 1 mps 748 mmHg 67%
    02:00 +14°C° 0 mm 1 mps 748 mmHg 67%
    03:00 +14°C° 0 mm 1 mps 747 mmHg 67%
    04:00 +13°C° 0 mm 1 mps 747 mmHg 67%
    05:00 +14°C° 0 mm 1 mps 747 mmHg 67%
    06:00 +14°C° 0 mm 1 mps 747 mmHg 67%
    07:00 +14°C° 0 mm 1 mps 747 mmHg 67%
    08:00 +15°C° 0 mm 1 mps 747 mmHg 62%
    09:00 +16°C° 0 mm 1 mps 747 mmHg 57%
    10:00 +19°C° 0 mm 1 mps 748 mmHg 52%
    11:00 +18°C° 0 mm 2 mps 747 mmHg 49%
    12:00 +19°C° 0 mm 2 mps 746 mmHg 45%
    13:00 +19°C° 0 mm 2 mps 746 mmHg 42%
    14:00 +19°C° 0 mm 2 mps 746 mmHg 47%
    15:00 +18°C° 0 mm 3 mps 745 mmHg 52%
    16:00 +17°C° 0 mm 3 mps 745 mmHg 57%
    17:00 +16°C° 0 mm 2 mps 746 mmHg 62%
    18:00 +15°C° 0 mm 1 mps 746 mmHg 68%
    19:00 +13°C° 0 mm 0 mps 746 mmHg 73%
    20:00 +13°C° 0 mm 0 mps 746 mmHg 72%
    21:00 +13°C° 0 mm 0 mps 747 mmHg 71%
    22:00 +13°C° 0 mm 0 mps 747 mmHg 71%
    23:00 +12°C° 0 mm 0 mps 747 mmHg 71%
    Show more